User: anonymous   Login
Location: Oshawa
(43.9000°N, 78.8670°W)
Time: 09:04:23
(UTC-04:00)
Language:

Cosmos 1805 Rocket - Orbit

View from above orbital plane
View from above orbital plane
View from above satellite
View from above satellite

Ground track
Ground track

The orbit data is extracted from the following two-line orbital elements,

1 17192U 86097B   16145.38088487  .00000117  00000-0  11335-4 0  9999
2 17192  82.5072 261.3987 0015642 306.1003  83.9996 14.83441518591034
Epoch (UTC): 24 May 2016 09:08:28
Eccentricity: 0.0015642
inclination: 82.5072°
perigee height: 607 km
apogee height: 629 km
right ascension of ascending node: 261.3987°
argument of perigee: 306.1003°
revolutions per day: 14.83441518
mean anomaly at epoch: 83.9996°
orbit number at epoch: 59103

The dashed part of the orbit path shows where the satellite is in the earth's shadow,  

DLR